Content
SEND FEEDBACK

Daily
Averages
Monthly
Summary
United States of America

MILAN, MICHIGAN


Home > North America > United States > Michigan
Elevation: 660 feet     Latitude: 42 05N     Longitude: 083 35W

WEATHER
 
SELECT A DAY
Number of Records: 202,607;   Date Range: 1/1/95 - 7/29/14
 
SHARE

PRINT THIS DATA

[ ← Previous Day ]
WEATHER ALMANAC - OCTOBER 25, 2013
[ Next Day → ]
[ °C ]   °F
Weather ElementAverageHighLow
Temperature41.1 °F51.1 °F (12:53 pm)34 °F (1:53 am)
Dewpoint29.8 °F34 °F (9:53 am)27 °F (1:53 pm)
Humidity66.1 %82 % (1:53 am)41 % (2:53 pm)
Barometer30.26 in30.34 in (9:53 am)30.14 in (11:53 pm)
Wind Speed10.5 mph16.1 mph (1:53 pm)
Wind Gust21.9 mph (1:53 pm)
Weather ElementAverage
Visibility9.9 mi
Wind DirectionWSW (258.9 °)

Weather ElementTotal
Precipitation---
Heating Degree Days22.5 (Base 65)
Averaged from 28 records on October 25, 2013
WEATHER CONDITIONS BREAKOUT
WIND DIRECTION BREAKOUT
WEATHER BY HOUR - OCTOBER 25, 2013
[ °C ]   °F
Local TimeTemperatureDewpointHumidityBarometerVisibilityWind DirectionWind SpeedGust SpeedPrecipitationEventsConditions
1:53 AM34.0 °F28.9 °F82 %30.21 in10.0 miWSW (250°)8.1 mphClear
2:53 AM34.0 °F28.9 °F82 %30.22 in10.0 miWest (260°)5.8 mphClear
3:53 AM34.0 °F28.9 °F82 %30.23 in10.0 miWest (280°)6.9 mphClear
4:53 AM34.0 °F28.9 °F82 %30.24 in10.0 miWest (270°)5.8 mphClear
5:53 AM34.0 °F28.9 °F82 %30.26 in9.0 miWest (270°)5.8 mphClear
6:17 AM35.6 °F30.2 °F81 %30.26 in10.0 miWest (280°)12.7 mphScattered Clouds
6:26 AM35.6 °F30.2 °F81 %30.26 in9.0 miWest (280°)11.5 mphMostly Cloudy
6:53 AM35.1 °F30.0 °F82 %30.28 in9.0 miWest (280°)8.1 mph0.00 inMostly Cloudy
7:53 AM36.0 °F30.9 °F82 %30.30 in10.0 miWest (280°)9.2 mphMostly Cloudy
8:53 AM37.0 °F32.0 °F82 %30.32 in9.0 miWNW (290°)12.7 mph0.00 inSnowLight Snow
9:16 AM39.2 °F33.8 °F81 %30.32 in10.0 miWNW (300°)8.1 mph0.00 inOvercast
9:53 AM41.0 °F34.0 °F76 %30.34 in10.0 miWNW (290°)9.2 mph0.00 inOvercast
10:53 AM45.0 °F34.0 °F65 %30.33 in10.0 miWest (280°)13.8 mphClear
11:42 AM48.2 °F33.8 °F58 %30.32 in10.0 miWest (280°)9.2 mphMostly Cloudy
11:53 AM46.9 °F32.0 °F56 %30.33 in10.0 miWNW (300°)11.5 mphMostly Cloudy
12:01 PM46.4 °F30.2 °F53 %30.32 in10.0 miWest (270°)8.1 mphScattered Clouds
12:53 PM51.1 °F30.9 °F46 %30.32 in10.0 miWest (260°)11.5 mphScattered Clouds
1:53 PM48.9 °F27.0 °F43 %30.30 in10.0 miWNW (290°)16.1 mph21.9 mphOvercast
2:53 PM50.0 °F27.0 °F41 %30.28 in10.0 miWest (270°)16.1 mphScattered Clouds
3:53 PM48.0 °F28.9 °F48 %30.27 in10.0 miWSW (240°)16.1 mphOvercast
4:53 PM48.0 °F28.9 °F48 %30.26 in10.0 miWSW (240°)13.8 mphOvercast
5:53 PM46.9 °F28.9 °F50 %30.24 in10.0 miSW (220°)13.8 mphOvercast
6:53 PM44.1 °F28.9 °F55 %30.23 in10.0 miSW (220°)9.2 mphPartly Cloudy
7:53 PM41.0 °F28.9 °F62 %30.22 in10.0 miSSW (210°)9.2 mphPartly Cloudy
8:53 PM39.9 °F28.0 °F63 %30.20 in10.0 miSW (220°)9.2 mphClear
9:53 PM37.9 °F28.0 °F68 %30.17 in10.0 miSSW (200°)9.2 mphClear
10:53 PM39.0 °F27.0 °F62 %30.16 in10.0 miSSW (210°)12.7 mphClear
11:53 PM41.0 °F27.0 °F57 %30.14 in10.0 miSSW (210°)11.5 mphMostly Cloudy
Hourly data recorded from KYIP, located miles away from Milan, Michigan







STORIES FROM OUR PARTNERS